Overview Statistics Trail Chart Weather Telemetry Raw packets
 

This is the latest recevied weather packets stored in our database for station/object K1TTC. If no packets are shown the sender has not sent any weather packets the latest 10 day(s).

<< 32 33 34 35 36 37 38 >>
Time Temp. Humidity Pressure Rain* Wind** Luminosity Snow
1788138718 23.89° C 59% 1018.1 hPa 0 mm - 0 W/m² -
1788138118 23.89° C 58% 1017.9 hPa 0 mm - 0 W/m² -
1788137518 23.89° C 57% 1018 hPa 0 mm - 0 W/m² -
1788136921 23.89° C 57% 1017.7 hPa 0 mm - 0 W/m² -
1788136319 23.89° C 56% 1017.7 hPa 0 mm - 0 W/m² -
1788135719 23.89° C 56% 1017.6 hPa 0 mm - 0 W/m² -
1788135133 24.44° C 55% 1017.6 hPa 0 mm - 0 W/m² -
1788134518 24.44° C 54% 1017.5 hPa 0 mm - 0 W/m² -
1788133914 24.44° C 54% 1017.4 hPa 0 mm - 0 W/m² -
1788133316 24.44° C 53% 1017.2 hPa 0 mm - 0 W/m² -
1788132711 24.44° C 52% 1017.2 hPa 0 mm - 0 W/m² -
1788132111 24.44° C 52% 1017.7 hPa 0 mm - 0 W/m² -
1788131510 25° C 51% 1017.1 hPa 0 mm - 11 W/m² -
1788130910 25° C 51% 1017.4 hPa 0 mm - 12 W/m² -
1788130310 25° C 51% 1017.3 hPa 0 mm - 14 W/m² -
1788129710 25° C 51% 1017.6 hPa 0 mm - 16 W/m² -
1788129110 25.56° C 50% 1017.6 hPa 0 mm - 21 W/m² -
1788128511 25.56° C 50% 1017.6 hPa 0 mm - 32 W/m² -
1788127913 25.56° C 50% 1017.7 hPa 0 mm - 21 W/m² -
1788127306 25.56° C 50% 1017.7 hPa 0 mm - 72 W/m² -
1788126735 25.56° C 51% 1017.7 hPa 0 mm - 63 W/m² -
1788126107 25.56° C 50% 1017.6 hPa 0 mm - 84 W/m² -
1788125507 25.56° C 51% 1017.6 hPa 0 mm - 39 W/m² -
1788124906 25.56° C 51% 1017.8 hPa 0 mm - 51 W/m² -
1788124306 25.56° C 50% 1017.8 hPa 0 mm - 91 W/m² -

* Rain latest hour (hover to see other rain measurements)
** Current wind speed in m/s (hover to see current wind gust speed)